Regional Weather Roundup
Issued by NWS

Home | Current Version | Previous Version | Text Only | Print | Product List | Glossary Off
Versions: 1 2 3 4 5 6 7 8 9 10 11 12 13 14 15 16 17 18 19 20 21 22 23 24 25 26 27 28 29 30 31 32 33 34 35 36 37 38 39 40 41 42 43 44 45 46 47 48 49 50

363
ASUS43 KLMK 202202
RWRKY
KENTUCKY REGIONAL WEATHER ROUNDUP
NATIONAL WEATHER SERVICE LOUISVILLE KY
500 PM EST MON FEB 20 2017

NOTE "FAIR" INDICATES FEW OR NO CLOUDS BELOW 12,000 FEET
WITH NO SIGNIFICANT WEATHER AND/OR OBSTRUCTIONS TO VISIBILITY.

KYZ001>023-026-027-061>063-070>075-202300-
WESTERN AND SOUTH CENTRAL KENTUCKY

CITY           SKY/WX    TMP DP  RH WIND       PRES   REMARKS
PADUCAH        CLOUDY    71  51  49 SE9       30.00F
HENDERSON      CLOUDY    66  50  55 SE6       30.02S
OWENSBORO      PTSUNNY   70  50  49 SE8       30.04F
HOPKINSVILLE   PTSUNNY   72  48  42 SE7       30.03F
BOWLING GREEN  CLOUDY    73  42  32 SW10      30.06S
GLASGOW        NOT AVBL
$$

KYZ024-025-028>034-038-045-046-053-202300-
NORTH CENTRAL KENTUCKY

CITY           SKY/WX    TMP DP  RH WIND       PRES   REMARKS
LOUISVILLE/SDF CLOUDY    72  45  37 SE6       30.07S
LOUISVILLE/LOU CLOUDY    73  45  36 SE8       30.07F
FORT KNOX      SUNNY     71  44  37 SE7       30.06S
$$

KYZ035>037-039>044-047>052-055>060-089>105-202300-
NORTHEAST KENTUCKY

CITY           SKY/WX    TMP DP  RH WIND       PRES   REMARKS
LEXINGTON      CLOUDY    71  41  33 E6        30.10F
COVINGTON      CLOUDY    63  48  58 E7        30.11S
FRANKFORT      SUNNY     71  42  35 SE8       30.09R
$$

KYZ054-064>069-076>088-106>120-202300-
SOUTHEAST KENTUCKY

CITY           SKY/WX    TMP DP  RH WIND       PRES   REMARKS
JACKSON        MOSUNNY   69  37  30 CALM      30.13F
LONDON         SUNNY     68  33  27 SE6       30.11F
SOMERSET       CLOUDY    68  39  34 E3        30.11S
MIDDLESBORO    MOSUNNY   69  41  36 CALM      30.13S
MONTICELLO     MOCLDY    70  46  42 N17       30.11S
$$





USA.gov is the U.S. government's official web portal to all federal, state and local government web resources and services.